Powrót do katalogu

COSMOS 2251 DEB

AktywnyLEO
NORAD 34908·DEBRIS·🇷🇺 Russia

Wystrzelony Jun 16, 1993 z Plesetsk Cosmodrome

Loading…

Następne Przeloty (najbliższe 24 godziny)

TLE

ŚwieżeSource: Space-Track

Epoka: Sep 14, 2026, 09:51 UTC

1 34908U 93036ADD 26257.41065760  .00000834  00000-0  28046-3 0  9994
2 34908  74.0553 236.6873 0040996 190.2945 323.2771 14.38203507912418

Śledź COSMOS 2251 DEB w czasie rzeczywistym z AllMySat

Download on the App Store